Location: Nairn
(57.5833°N, 3.8667°W)
Time: 15:52:01
(UTC+00:00)

S-56A Canister/Altair - Pass Details

Date: 30 November 2020
Orbit: 633 x 2499 km, 38.9° (Epoch: 19 January)

Event Time Altitude Azimuth Distance (km) Brightness Sun altitude
Rises 22:51:21 0° 254° (WSW) 4,813 11.7 -51.9°
Enters shadow 22:52:20 - 251° (WSW) 4,526 11.5 -51.9°
Reaches altitude 10° 22:56:30 10° 234° (SW) 3,396 - -52.2°
Maximum altitude 23:00:43 15° 203° (SSW) 2,672 - -52.4°
Drops below altitude 10° 23:04:14 10° 170° (S) 2,737 - -52.6°
Sets 23:07:41 0° 147° (SSE) 3,408 - -52.8°
